Regional Weather Roundup
Issued by NWS

Home | Current Version | Previous Version | Graphics & Text | Print | Product List | Glossary On
Versions: 1 2 3 4 5 6 7 8 9 10 11 12 13 14 15 16 17 18 19 20 21 22 23 24 25 26 27 28 29 30 31 32 33 34 35 36 37 38 39 40 41 42 43 44 45 46 47 48 49 50
000
ASUS44 KMEG 262000
RWRTN
TENNESSEE HOURLY STATE WEATHER ROUNDUP
NATIONAL WEATHER SERVICE MEMPHIS TN
300 PM CDT THU MAR 26 2015

TNZ002-004-019-021-049-052-054-088>092-262100-
WEST TENNESSEE

CITY           SKY/WX    TMP DP  RH WIND       PRES   REMARKS
MEMPHIS INTL   LGT RAIN  48  42  80 N18G24    29.98F
NWS MEMPHIS      N/A     47 N/A N/A MISG        N/A
JACKSON        CLOUDY    47  44  90 N17G26    29.96F
DYERSBURG      CLOUDY    45  32  61 N15       30.02F
UNION CITY       N/A     43  41  93 N13       30.00F
PARIS          CLOUDY    41  39  93 N14       29.98F
LEXINGTON      CLOUDY    46  45  93 N13       29.92R
SAVANNAH       CLOUDY    50  48  93 N14       29.91R
$$

TNZ008-025-027-028-033-062-065-066-262100-
NORTH MIDDLE TENNESSEE

CITY           SKY/WX    TMP DP  RH WIND       PRES   REMARKS
NASHVILLE      CLOUDY    50  46  86 NW15G22   29.88S
CLARKSVILLE    LGT RAIN  44  43  96 N20G25    29.96S FOG
COOKEVILLE     CLOUDY    57  54  88 N9        29.81R
CROSSVILLE     CLOUDY    68  51  54 W13G22    29.78F
$$

TNZ061-075-076-078-094-096-097-262100-
SOUTH MIDDLE TENNESSEE

CITY           SKY/WX    TMP DP  RH WIND       PRES   REMARKS
FAYETTEVILLE   PTSUNNY   68  54  60 W8        29.79F
TULLAHOMA      CLOUDY    66  54  63 N18       29.80S
WINCHESTER     CLOUDY    72  55  56 W9        29.79S
COLUMBIA       CLOUDY    52  52 100 N10       29.86S
SHELBYVILLE    CLOUDY    55  52  88 N17       29.84R
$$

TNZ017-018-042-046-047-262100-
NORTHEAST TENNESSEE

CITY           SKY/WX    TMP DP  RH WIND       PRES   REMARKS
TRI CITIES     PTSUNNY   73  52  47 SW18      29.75F
ELIZABETHTON   CLEAR     72  52  49 W10       29.75F
$$

TNZ012-013-036-069-073-074-262100-
CENTRAL EAST TENNESSEE

CITY           SKY/WX    TMP DP  RH WIND       PRES   REMARKS
KNOXVILLE      CLOUDY    75  51  43 SW18G24   29.74F
OAK RIDGE      PTSUNNY   76  52  43 SW10G18   29.74F
GATLINBURG     CLEAR     75  46  35 SW15      29.72F
$$

TNZ083-085-099-262100-
SOUTHEAST TENNESSEE

CITY           SKY/WX    TMP DP  RH WIND       PRES   REMARKS
CHATTANOOGA    CLOUDY    75  50  41 S14G23    29.79R
$$

SKY/WX REPORTED AS FAIR MEANS FEW OR NO CLOUDS BELOW
12 THOUSAND FEET.




USA.gov is the U.S. government's official web portal to all federal, state and local government web resources and services.